Regional Weather Roundup
Issued by NWS

Home | Current Version | Previous Version | Graphics & Text | Print | Product List | Glossary On
Versions: 1 2 3 4 5 6 7 8 9 10 11 12 13 14 15 16 17 18 19 20 21 22 23 24 25 26 27 28 29 30 31 32 33 34 35 36 37 38 39 40 41 42 43 44 45 46 47 48 49 50
198
ASUS44 KJAN 230010
RWRMS

MISSISSIPPI HOURLY WEATHER ROUNDUP
NATIONAL WEATHER SERVICE JACKSON MS
700 PM CDT TUE JUL 22 2014

NOTE: "FAIR: INDICATES FEW OR NO CLOUDS BELOW 12,000 FEET WITH NO
SIGNIFICANT WEATHER AND/OR OBSTRUCTIONS TO VISIBILITY.

MSZ001>002-007>008-010>013-018>021-025>028-034>036-230100-
NORTHWEST MISSISSIPPI

CITY           SKY/WX    TMP DP  RH WIND       PRES   REMARKS
CLARKSDALE     FAIR      86  75  70 CALM      30.04S HX  95
CLEVELAND      FAIR      84  76  75 NW7       30.02S HX  93
GREENWOOD      PTSUNNY   87  75  67 VRB3      30.02R HX  96
6HR MIN TEMP:  86; 6HR MAX TEMP:  92;

GREENVILLE     PTSUNNY   88  72  58 N6        30.03R HX  94
6HR MIN TEMP:  87; 6HR MAX TEMP:  91;

GRENADA        FAIR      86  73  66 CALM      30.03R HX  93
OLIVE BRANCH   PTSUNNY   86  73  66 NE6       30.03S HX  93
OXFORD         FAIR      84  72  65 CALM      30.05S
TUNICA         PTCLDY    86  70  58 NW5       30.03S HX  90
$$

MSZ003>006-009-014>017-022>024-029>033-037>039-230100-
NORTHEAST MISSISSIPPI

CITY           SKY/WX    TMP DP  RH WIND       PRES   REMARKS
BELMONT        FAIR      78  72  82 CALM      30.06R
COLUMBUS AFB   CLOUDY    79  74  85 CALM      30.05R
6HR MIN TEMP:  79; 6HR MAX TEMP:  84; 6HR PCP:  0.01;

CORINTH        FAIR      84  73  70 CALM      30.03S HX  91
GOLDN TRIANGLE PTSUNNY   82  73  74 N3        30.05R
STARKVILLE     FAIR      81  73  78 CALM      30.05R
TUPELO         PTSUNNY   83  74  74 S9        30.04R
6HR MIN TEMP:  83; 6HR MAX TEMP:  90;

$$

MSZ040-058-230100-
CENTRAL MISSISSIPPI

CITY           SKY/WX    TMP DP  RH WIND       PRES   REMARKS
JACKSON INTL   PTSUNNY   82  72  71 N5        30.04S
6HR MIN TEMP:  82; 6HR MAX TEMP:  89;

JACKSON HAWKNS MOSUNNY   80  68  66 CALM      30.04R
6HR MIN TEMP:  80; 6HR MAX TEMP:  89;

MERIDIAN KEY   CLOUDY    72  69  90 S10       30.06R
6HR MIN TEMP:  72; 6HR MAX TEMP:  85; 6HR PCP: TRACE;

MERIDIAN NAS   CLOUDY    78  74  87 SE6       30.05R THUNDER
6HR MIN TEMP:  78; 6HR MAX TEMP:  84;

RAYMOND        FAIR      81  75  83 E3        30.04R
VICKSBURG      PTSUNNY   81  74  79 NE5       30.03R
6HR MIN TEMP:  81; 6HR MAX TEMP:  92;

$$

MSZ059>079-230100-
SOUTH MISSISSIPPI

CITY           SKY/WX    TMP DP  RH WIND       PRES   REMARKS
BROOKHAVEN     FAIR      82  75  78 CALM      30.06R HAZE
COLUMBIA       RAIN      72  70  94 N3        30.04R
HATTIESBURG    CLOUDY    71  69  93 W6        30.04F
6HR MIN TEMP:  71; 6HR MAX TEMP:  89; 6HR PCP:  0.39;

MCCOMB         PTSUNNY   82  72  71 VRB5      30.03S
6HR MIN TEMP:  82; 6HR MAX TEMP:  88;

NATCHEZ        PTSUNNY   82  73  74 E3        30.03R
6HR MIN TEMP:  82; 6HR MAX TEMP:  88;

PINE BELT      CLOUDY    72  66  83 CALM      30.05F
6HR MIN TEMP:  72; 6HR MAX TEMP:  88; 6HR PCP:  0.18;

$$

MSZ080>082-230100-
COASTAL MISSISSIPPI

CITY           SKY/WX    TMP DP  RH WIND       PRES   REMARKS
BAY ST LOUIS   PTSUNNY  N/A N/A N/A N6        30.02S
BILOXI         PTSUNNY   78  70  76 CALM      30.00F
6HR MIN TEMP:  76; 6HR MAX TEMP:  90;

PASCAGOULA     MOSUNNY   78  71  79 NW5       30.01S
6HR MIN TEMP:  78; 6HR MAX TEMP:  88;

GULFPORT       CLOUDY    81  68  64 NW8       29.99F
6HR MIN TEMP:  81; 6HR MAX TEMP:  92;

$$



USA.gov is the U.S. government's official web portal to all federal, state and local government web resources and services.